sat.trackr.live / text

‹ back to catalog

STARLINK-37543

NORAD 68911 · 2026-097S

PAYLOAD ACTIVE UNKNOWN

§ Identity

Operator
Country
US
Launch date
2026-04-30
Launch site
AFWTR
Launch vehicle
Mass (kg)
RCS (m²)

Purposes: comms

External: N2YO · Heavens-Above · Gunter

§ Orbital elements

Epoch: 2026-09-19T23:38:55.701024Z

Period
93.91 min
Inclination
97.2865°
Eccentricity
0.0001304
Mean motion
15.33445040 rev/d
Perigee alt
464.7 km
Apogee alt
466.4 km
Semi-major
6,843.7 km
B*
2.5970e-4
RAAN
97.1472°
Arg perigee
92.8310°
Mean anomaly
267.3081°
Rev number
2,201

§ Raw data

STARLINK-375431 68911U 26097S   26262.98536691  .00008318  00000+0  25970-3 0  99992 68911  97.2865  97.1472 0001304  92.8310 267.3081 15.33445040 22016

JSON: /api/v1/satellites/68911 · /tle

For live sub-satellite position, see the globe view (requires WebGL).

§ Visibility from observer

Set your observer location to see the next 7 days of passes ≥ 10°. The values pass through the URL so the page stays shareable.

No JS? Fill the form by hand. The geolocation button needs JavaScript.